QPF
0.00 0.00 0.00 0.00 0.00 0.00 0.00 0.00 0.00 0.00 0.00 0.00 0.00 0.00 0.00 0.00 0.00 0.00 0.00 0.00 0.00 0.00 0.00 0.00 0.00 0.00 0.00 0.00 0.00 0.00 0.00 0.00 0.00 0.00 0.00 0.00 0.00 0.00 0.00 0.00 0.00 0.00 0.00 0.00
0.00 0.00 0.00 0.00 0.00 0.00 0.00 0.00 0.00 0.00 0.00 0.00 0.00 0.00 0.00 0.00 0.00 0.00 0.00 0.00 0.00 0.00 0.00 0.00 0.00 0.00 0.00 0.00 0.00 0.00 0.00 0.00 0.00 0.00 0.00 0.00 0.00 0.00 0.00 0.00 0.00 0.00 0.00 0.00
0.00 0.00 0.00 0.00 0.00 0.00 0.00 0.00 0.00 0.00 0.00 0.00 0.00 0.00 0.00 0.00 0.00 0.00 0.00 0.00 0.00 0.00 0.00 0.00 0.00 0.00 0.00 0.00 0.00 0.00 0.00 0.00 0.00 0.00 0.00 0.00 0.00 0.00 0.00 0.00 0.00 0.00 0.00 0.00
0.00 0.00 0.00 0.00 0.00 0.00 0.00 0.00 0.00 0.00 0.00 0.00 0.00 0.00 0.00 0.00 0.00 0.00 0.00 0.00 0.00 0.00 0.00 0.00 0.00 0.00 0.00 0.00 0.00 0.00 0.00 0.00 0.00 0.00 0.00 0.00 0.00 0.00 0.00 0.00 0.00 0.00 0.00 0.00
0.00 0.00 0.00 0.00 0.00 0.00 0.00 0.00 0.00 0.00 0.00 0.00 0.00 0.00 0.00 0.00 0.00 0.00 0.00 0.00 0.00 0.00 0.00 0.00 0.00 0.00 0.00 0.00 0.00 0.00 0.00 0.00 0.00 0.00 0.00 0.00 0.00 0.00 0.00 0.00 0.00 0.00 0.00 0.00
0.00 0.00 0.00 0.00 0.00 0.00 0.00 0.00 0.00 0.00 0.00 0.00 0.00 0.00 0.00 0.00 0.00 0.00 0.00 0.00 0.00 0.00 0.00 0.00 0.00 0.00 0.00 0.00 0.00 0.00 0.00 0.00 0.00 0.00 0.00 0.00 0.00 0.00 0.00 0.00 0.00 0.00 0.00 0.00
0.00 0.00 0.00 0.00 0.00 0.00 0.00 0.00 0.00 0.00 0.00 0.00 0.00 0.00 0.00 0.00 0.00 0.00 0.00 0.00 0.00 0.00 0.00 0.00 0.00 0.00 0.00 0.00 0.00 0.00 0.00 0.00 0.00 0.00 0.00 0.00 0.00 0.00 0.00 0.00 0.00 0.00 0.00 0.00
0.00 0.00 0.00 0.00 0.00 0.00 0.00 0.00 0.00 0.00 0.00 0.00 0.00 0.00 0.00 0.00 0.00 0.00 0.00 0.00 0.00 0.00 0.00 0.00 0.00 0.00 0.00 0.00 0.00 0.00 0.00 0.00 0.00 0.00 0.00 0.00 0.00 0.00 0.00 0.00 0.00 0.00 0.00 0.00
0.00 0.00 0.00 0.00 0.00 0.00 0.00 0.00 0.00 0.00 0.00 0.00 0.00 0.00 0.00 0.00 0.00 0.00 0.00 0.00 0.00 0.00 0.00 0.00 0.00 0.00 0.00 0.00 0.00 0.00 0.00 0.00 0.00 0.00 0.00 0.00 0.00 0.00 0.00 0.00 0.00 0.00 0.00 0.00
0.00 0.00 0.00 0.00 0.00 0.00 0.00 0.00 0.00 0.00 0.00 0.00 0.00 0.00 0.00 0.00 0.00 0.00 0.00 0.00 0.00 0.00 0.00 0.00 0.00 0.00 0.00 0.00 0.00 0.00 0.00 0.00 0.00 0.00 0.00 0.00 0.00 0.00 0.00 0.00 0.00 0.00 0.00 0.00
0.00 0.00 0.00 0.00 0.00 0.00 0.00 0.00 0.00 0.00 0.00 0.00 0.00 0.00 0.00 0.00 0.00 0.00 0.00 0.00 0.00 0.00 0.00 0.00 0.00 0.00 0.00 0.00 0.00 0.00 0.00 0.00 0.00 0.00 0.00 0.00 0.00 0.00 0.00 0.00 0.00 0.00 0.00 0.00
0.00 0.00 0.00 0.00 0.00 0.00 0.00 0.00 0.00 0.00 0.00 0.00 0.00 0.00 0.00 0.00 0.00 0.00 0.00 0.00 0.00 0.00 0.00 0.00 0.00 0.00 0.00 0.00 0.00 0.00 0.00 0.00 0.00 0.00 0.00 0.00 0.00 0.00 0.00 0.00 0.00 0.00 0.00 0.00
0.00 0.00 0.00 0.00 0.00 0.00 0.00 0.00 0.00 0.00 0.00 0.00 0.00 0.00 0.00 0.00 0.00 0.00 0.00 0.00 0.00 0.00 0.00 0.00 0.00 0.00 0.00 0.00 0.00 0.00 0.00 0.00 0.00 0.00 0.00 0.00 0.00 0.00 0.00 0.00 0.00 0.00 0.00 0.00
0.00 0.00 0.00 0.00 0.00 0.00 0.00 0.00 0.00 0.00 0.00 0.00 0.00 0.00 0.00 0.00 0.00 0.00 0.00 0.00 0.00 0.00 0.00 0.00 0.00 0.00 0.00 0.00 0.00 0.00 0.00 0.00 0.00 0.00 0.00 0.00 0.00 0.00 0.00 0.00 0.00 0.00 0.00 0.00
0.00 0.00 0.00 0.00 0.00 0.00 0.00 0.00 0.00 0.00 0.00 0.00 0.00 0.00 0.00 0.00 0.00 0.00 0.00 0.00 0.00 0.00 0.00 0.00 0.00 0.00 0.00 0.00 0.00 0.00 0.00 0.00 0.00 0.00 0.00 0.00 0.00 0.00 0.00 0.00 0.00 0.00 0.00 0.00
0.00 0.00 0.00 0.00 0.00 0.00 0.00 0.00 0.00 0.00 0.00 0.00 0.00 0.00 0.00 0.00 0.00 0.00 0.00 0.00 0.00 0.00 0.00 0.00 0.00 0.00 0.00 0.00 0.00 0.00 0.00 0.00 0.00 0.00 0.00 0.00 0.00 0.00 0.00 0.00 0.00 0.00 0.00 0.00
0.00 0.00 0.00 0.00 0.00 0.00 0.00 0.00 0.00 0.00 0.00 0.00 0.00 0.00 0.00 0.00 0.00 0.00 0.00 0.00 0.00 0.00 0.00 0.00 0.00 0.00 0.00 0.00 0.00 0.00 0.00 0.00 0.00 0.00 0.00 0.00 0.00 0.00 0.00 0.00 0.00 0.00 0.00 0.00
0.00 0.00 0.00 0.00 0.00 0.00 0.00 0.00 0.00 0.00 0.00 0.00 0.00 0.00 0.00 0.00 0.00 0.00 0.00 0.00 0.00 0.00 0.00 0.00 0.00 0.00 0.00 0.00 0.00 0.00 0.00 0.00 0.00 0.00 0.00 0.00 0.00 0.00 0.00 0.00 0.00 0.00 0.00 0.00
0.00 0.00 0.00 0.00 0.00 0.00 0.00 0.00 0.00 0.00 0.00 0.00 0.00 0.00 0.00 0.00 0.00 0.00 0.00 0.00 0.00 0.00 0.00 0.00 0.00 0.00 0.00 0.00 0.00 0.00 0.00 0.00 0.00 0.00 0.00 0.00 0.00 0.00 0.00 0.00 0.00 0.00 0.00 0.00
0.00 0.00 0.00 0.00 0.00 0.00 0.00 0.00 0.00 0.00 0.00 0.00 0.00 0.00 0.00 0.00 0.00 0.00 0.00 0.00 0.00 0.00 0.00 0.00 0.00 0.00 0.00 0.00 0.00 0.00 0.00 0.00 0.00 0.00 0.00 0.00 0.00 0.00 0.00 0.00 0.00 0.00 0.00 0.00
0.00 0.00 0.00 0.00 0.00 0.00 0.00 0.00 0.00 0.00 0.00 0.00 0.00 0.00 0.00 0.00 0.00 0.00 0.00 0.00 0.00 0.00 0.00 0.00 0.00 0.00 0.00 0.00 0.00 0.00 0.00 0.00 0.00 0.00 0.00 0.00 0.00 0.00 0.00 0.00 0.00 0.00 0.00 0.00
0.00 0.00 0.00 0.00 0.00 0.00 0.00 0.00 0.00 0.00 0.00 0.00 0.00 0.00 0.00 0.00 0.00 0.00 0.00 0.00 0.00 0.00 0.00 0.00 0.00 0.00 0.00 0.00 0.00 0.00 0.00 0.00 0.00 0.00 0.00 0.00 0.00 0.00 0.00 0.00 0.00 0.00 0.00 0.00
0.00 0.00 0.00 0.00 0.00 0.00 0.00 0.00 0.00 0.00 0.00 0.00 0.00 0.00 0.00 0.00 0.00 0.00 0.00 0.00 0.00 0.00 0.00 0.00 0.00 0.00 0.00 0.00 0.00 0.00 0.00 0.00 0.00 0.00 0.00 0.00 0.00 0.00 0.00 0.00 0.00 0.00 0.00 0.00
0.00 0.00 0.00 0.00 0.00 0.00 0.00 0.00 0.00 0.00 0.00 0.00 0.00 0.00 0.00 0.00 0.00 0.00 0.00 0.00 0.00 0.00 0.00 0.00 0.00 0.00 0.00 0.00 0.00 0.00 0.00 0.00 0.00 0.00 0.00 0.00 0.00 0.00 0.00 0.00 0.00 0.00 0.00 0.00
0.00 0.00 0.00 0.00 0.00 0.00 0.00 0.00 0.00 0.00 0.00 0.00 0.00 0.00 0.00 0.00 0.00 0.00 0.00 0.00 0.00 0.00 0.00 0.00 0.00 0.00 0.00 0.00 0.00 0.00 0.00 0.00 0.00 0.00 0.00 0.00 0.00 0.00 0.00 0.00 0.00 0.00 0.00 0.00
0.00 0.00 0.00 0.00 0.00 0.00 0.00 0.00 0.00 0.00 0.00 0.00 0.00 0.00 0.00 0.00 0.00 0.00 0.00 0.00 0.00 0.00 0.00 0.00 0.00 0.00 0.00 0.00 0.00 0.00 0.00 0.00 0.00 0.00 0.00 0.00 0.00 0.00 0.00 0.00 0.00 0.00 0.00 0.00
MSLP
1013.81 1013.36 1012.39 1012.48 1012.57 1012.52 1012.60 1012.48 1012.81 1013.60 1014.82 1014.72 1013.85 1013.32 1013.03 1013.03 1013.19 1013.17 1012.99 1012.96 1013.09 1013.61 1014.12 1015.52 1017.06 1017.68 1018.11 1018.62 1018.82 1019.09 1019.37 1019.71 1019.48 1019.42 1019.56 1019.73 1019.80 1020.59 1021.42 1021.95 1022.19 1022.05 1022.00 1021.72
1014.30 1013.05 1012.43 1012.54 1013.03 1013.35 1013.12 1013.21 1013.61 1014.74 1015.32 1015.16 1014.06 1013.25 1012.74 1012.65 1012.42 1012.68 1012.78 1012.83 1013.00 1013.63 1014.36 1016.08 1017.23 1017.86 1018.17 1018.70 1019.20 1019.50 1019.75 1019.97 1020.01 1019.75 1019.72 1019.80 1020.29 1021.22 1021.89 1022.43 1022.64 1022.46 1022.32 1022.32
1012.99 1013.08 1013.47 1013.75 1013.90 1013.80 1013.79 1013.78 1014.26 1015.05 1015.49 1015.19 1014.55 1012.70 1011.62 1011.43 1011.86 1012.17 1012.57 1012.84 1012.93 1013.30 1014.13 1015.71 1017.19 1017.92 1018.51 1019.03 1019.47 1019.80 1020.13 1020.22 1020.32 1020.34 1020.21 1020.43 1020.98 1021.51 1021.84 1022.24 1022.64 1022.95 1022.77 1022.72
1013.76 1014.19 1014.25 1014.23 1014.14 1014.20 1014.32 1014.78 1015.18 1015.75 1015.85 1015.14 1014.93 1012.59 1011.32 1011.42 1011.86 1012.52 1012.78 1013.16 1013.37 1013.65 1014.02 1014.79 1016.85 1018.10 1018.86 1019.57 1020.18 1020.46 1020.76 1020.77 1020.75 1020.72 1020.49 1020.55 1020.77 1021.31 1022.06 1022.51 1022.97 1023.11 1023.26 1023.18
1014.36 1014.57 1014.59 1014.64 1014.48 1014.87 1014.94 1015.59 1015.89 1016.26 1016.32 1016.22 1015.09 1014.39 1011.36 1011.77 1011.72 1011.91 1012.97 1013.77 1014.01 1014.73 1014.84 1015.10 1016.78 1018.25 1019.39 1020.22 1020.63 1020.86 1021.07 1021.21 1021.26 1021.25 1021.00 1020.96 1021.36 1021.99 1022.47 1022.78 1023.02 1023.17 1023.43 1023.74
1015.45 1015.58 1015.27 1015.26 1015.48 1015.80 1016.29 1016.43 1016.83 1017.15 1016.99 1016.26 1014.85 1014.46 1011.49 1011.54 1011.92 1012.38 1013.50 1014.02 1015.14 1015.61 1015.94 1016.10 1017.53 1018.94 1019.94 1020.61 1020.86 1020.96 1021.16 1021.47 1021.62 1021.65 1021.66 1021.64 1021.85 1022.17 1022.60 1022.92 1023.10 1023.47 1023.83 1024.12
1015.76 1016.09 1016.32 1016.22 1016.37 1017.00 1016.51 1016.52 1017.25 1017.64 1017.48 1015.85 1015.38 1014.89 1012.20 1012.44 1013.06 1013.63 1014.31 1014.80 1015.70 1016.28 1016.69 1017.28 1018.48 1019.27 1019.86 1020.34 1020.75 1021.12 1021.28 1021.62 1021.85 1022.00 1022.23 1022.35 1022.39 1022.56 1022.92 1023.23 1023.64 1023.80 1024.12 1024.59
1014.70 1016.36 1016.29 1016.45 1015.88 1016.11 1016.49 1016.25 1016.20 1016.54 1016.60 1015.64 1016.07 1014.11 1012.37 1013.26 1013.95 1014.66 1015.29 1015.52 1016.23 1016.65 1017.15 1017.83 1018.54 1019.25 1019.79 1020.24 1020.70 1021.17 1021.44 1021.89 1022.19 1022.41 1022.73 1022.93 1022.98 1023.14 1023.58 1023.96 1024.19 1024.43 1024.74 1025.09
1013.87 1015.30 1016.37 1016.48 1016.40 1016.29 1016.90 1016.82 1016.63 1016.61 1017.45 1016.34 1014.24 1013.23 1012.64 1013.08 1014.01 1014.75 1015.43 1016.03 1016.49 1016.91 1017.41 1017.96 1018.62 1019.18 1019.71 1020.32 1020.88 1021.23 1021.54 1021.97 1022.32 1022.65 1022.99 1023.33 1023.54 1023.71 1024.03 1024.38 1024.54 1024.86 1025.13 1025.42
1013.17 1015.02 1016.46 1016.95 1016.82 1016.72 1016.16 1016.17 1016.89 1016.56 1016.41 1015.27 1013.20 1012.89 1011.98 1012.87 1013.48 1014.44 1015.21 1015.82 1016.43 1016.98 1017.42 1017.94 1018.55 1019.14 1019.59 1020.14 1020.78 1021.24 1021.62 1022.01 1022.53 1022.98 1023.28 1023.61 1023.93 1024.08 1024.33 1024.57 1024.91 1025.26 1025.58 1025.73
1013.27 1014.00 1016.82 1017.05 1016.42 1015.77 1016.27 1016.06 1015.97 1015.74 1015.79 1014.76 1013.45 1011.97 1011.85 1012.35 1013.32 1013.97 1014.74 1015.47 1016.10 1016.70 1017.26 1017.82 1018.30 1018.98 1019.63 1020.14 1020.71 1021.18 1021.65 1022.13 1022.66 1023.00 1023.47 1023.89 1024.22 1024.51 1024.80 1025.08 1025.43 1025.70 1025.94 1026.10
1013.49 1014.46 1015.91 1016.24 1016.55 1016.15 1015.45 1015.31 1015.45 1014.95 1015.48 1014.94 1014.34 1012.45 1012.45 1012.78 1013.43 1014.10 1014.49 1015.19 1015.71 1016.30 1016.89 1017.45 1018.07 1018.72 1019.32 1019.91 1020.47 1020.85 1021.37 1021.93 1022.60 1023.17 1023.64 1024.13 1024.59 1024.93 1025.15 1025.34 1025.64 1025.86 1026.04 1026.25
1013.33 1014.23 1015.47 1016.44 1016.70 1016.42 1015.73 1015.67 1015.11 1015.09 1015.12 1014.17 1013.87 1012.14 1012.64 1013.03 1013.45 1013.79 1014.10 1014.72 1015.43 1015.95 1016.45 1017.02 1017.58 1018.10 1018.67 1019.24 1019.93 1020.58 1021.27 1021.96 1022.69 1023.32 1023.76 1024.20 1024.59 1025.02 1025.30 1025.60 1025.85 1026.02 1026.17 1026.40
1013.14 1013.41 1013.16 1013.38 1013.80 1014.28 1015.04 1014.91 1015.00 1014.98 1014.39 1013.55 1012.28 1012.14 1012.34 1012.55 1012.72 1013.17 1013.70 1014.19 1014.86 1015.66 1016.19 1016.50 1016.98 1017.42 1017.93 1018.47 1019.26 1020.16 1020.92 1021.64 1022.60 1023.14 1023.48 1023.87 1024.31 1024.77 1025.07 1025.41 1025.75 1026.05 1026.28 1026.57
1013.52 1013.68 1013.88 1014.50 1014.56 1014.14 1014.17 1014.02 1014.07 1013.79 1013.36 1012.69 1011.86 1011.39 1011.42 1011.65 1012.04 1012.58 1012.99 1013.82 1014.42 1014.99 1015.47 1015.97 1016.41 1016.90 1017.49 1018.29 1019.05 1019.77 1020.57 1021.34 1022.10 1022.73 1023.32 1023.78 1024.40 1024.83 1025.22 1025.66 1025.90 1026.17 1026.47 1026.80
1013.37 1014.02 1014.44 1015.16 1015.25 1015.08 1014.56 1013.82 1013.19 1012.82 1012.86 1012.50 1012.03 1010.71 1010.85 1011.02 1011.52 1012.22 1012.80 1013.33 1013.98 1014.33 1014.83 1015.41 1015.99 1016.59 1017.24 1017.84 1018.64 1019.43 1019.97 1020.84 1021.71 1022.24 1022.85 1023.45 1024.19 1024.81 1025.29 1025.72 1026.23 1026.58 1026.79 1026.96
1013.56 1014.42 1015.08 1015.68 1015.82 1015.58 1014.52 1013.01 1012.94 1012.58 1012.15 1011.70 1010.55 1010.20 1010.99 1010.87 1011.17 1011.44 1012.17 1012.65 1013.16 1013.72 1014.30 1014.92 1015.51 1016.22 1016.91 1017.44 1018.29 1019.19 1019.77 1020.55 1021.42 1021.93 1022.70 1023.29 1023.84 1024.50 1025.11 1025.65 1026.13 1026.54 1026.90 1027.21
1013.30 1014.47 1015.34 1016.37 1016.48 1015.05 1012.55 1012.26 1011.83 1011.54 1011.29 1011.06 1010.43 1010.59 1010.46 1010.53 1010.75 1011.46 1011.73 1012.03 1012.65 1013.23 1013.86 1014.60 1015.24 1015.85 1016.70 1017.70 1018.43 1019.00 1019.66 1020.50 1021.39 1022.09 1022.55 1023.13 1023.79 1024.34 1024.86 1025.31 1025.81 1026.19 1026.53 1026.87
1013.24 1014.28 1015.42 1015.81 1015.39 1013.27 1012.17 1012.29 1012.08 1011.63 1010.61 1010.51 1010.19 1010.11 1010.57 1010.85 1011.12 1010.91 1011.28 1011.85 1012.12 1012.74 1013.58 1014.26 1015.07 1015.78 1016.45 1017.50 1018.20 1018.94 1019.83 1020.64 1021.21 1021.58 1022.28 1022.86 1023.38 1024.05 1024.68 1025.10 1025.30 1025.67 1026.11 1026.69
1013.65 1013.83 1014.30 1015.47 1014.57 1013.17 1011.95 1011.91 1011.84 1011.70 1010.65 1009.50 1009.69 1010.10 1010.21 1010.92 1011.01 1010.71 1011.18 1011.85 1012.41 1012.95 1013.68 1014.58 1015.43 1016.08 1016.64 1017.44 1018.30 1019.26 1020.09 1020.69 1020.92 1021.45 1022.13 1022.76 1023.26 1023.80 1024.26 1024.82 1025.14 1025.55 1026.02 1026.52
1013.76 1013.99 1013.93 1014.42 1013.91 1012.29 1011.16 1011.86 1012.04 1011.86 1010.89 1010.12 1010.21 1010.12 1010.25 1010.58 1010.61 1011.78 1011.81 1012.29 1013.01 1013.72 1014.32 1015.04 1015.60 1016.08 1016.69 1017.78 1018.63 1019.45 1019.88 1020.13 1020.43 1021.30 1021.87 1022.47 1022.85 1023.22 1023.73 1024.44 1025.01 1025.57 1026.10 1026.68
1012.42 1013.17 1013.51 1013.89 1013.74 1012.09 1011.10 1012.06 1011.59 1010.64 1010.59 1010.67 1010.74 1010.57 1010.66 1010.93 1011.61 1012.26 1012.57 1013.03 1013.66 1014.25 1014.82 1015.42 1016.15 1016.75 1017.41 1017.90 1018.63 1019.23 1019.76 1019.66 1020.46 1021.16 1021.85 1022.35 1022.74 1023.07 1023.71 1024.26 1025.04 1025.56 1026.19 1026.65
1012.23 1011.30 1011.73 1012.12 1011.39 1011.06 1011.04 1010.80 1010.74 1010.71 1010.76 1011.20 1011.41 1011.40 1011.44 1011.88 1012.31 1012.80 1013.27 1013.68 1014.09 1014.46 1015.07 1015.79 1016.60 1017.30 1017.76 1018.08 1018.44 1019.08 1019.29 1019.95 1020.65 1021.28 1021.87 1022.38 1022.79 1023.25 1023.51 1024.21 1024.87 1025.46 1025.92 1026.30
1012.10 1011.65 1011.66 1012.14 1011.05 1011.29 1011.22 1011.07 1011.05 1011.29 1011.61 1011.74 1011.82 1012.20 1012.43 1012.69 1013.11 1013.41 1013.65 1013.97 1014.44 1015.12 1015.63 1016.09 1016.72 1017.19 1017.40 1017.66 1018.32 1018.88 1019.47 1020.02 1020.57 1021.16 1021.69 1022.26 1022.54 1023.03 1023.48 1023.70 1024.28 1024.71 1025.17 1025.70
1010.94 1011.32 1011.40 1011.55 1011.70 1011.80 1011.43 1010.98 1011.23 1011.74 1011.92 1012.30 1012.69 1012.97 1012.97 1013.14 1013.38 1013.62 1013.86 1014.29 1014.72 1015.24 1015.62 1016.08 1016.36 1016.63 1016.86 1017.31 1018.04 1018.82 1019.30 1019.84 1020.41 1020.91 1021.27 1021.55 1021.97 1022.49 1022.97 1023.28 1023.53 1024.02 1024.38 1024.65
1010.48 1010.61 1010.88 1010.34 1010.30 1010.48 1010.71 1010.66 1011.18 1011.87 1012.13 1012.84 1013.43 1013.50 1013.50 1013.54 1013.67 1013.99 1014.33 1014.39 1014.79 1015.22 1015.74 1016.19 1016.46 1016.80 1017.02 1017.31 1017.62 1017.94 1018.57 1019.21 1019.82 1020.41 1020.66 1020.97 1021.34 1022.04 1022.58 1022.99 1023.32 1023.59 1023.88 1024.36
Thickness
5615 5617 5625 5639 5648 5651 5648 5656 5657 5655 5645 5647 5659 5666 5675 5682 5681 5680 5683 5686 5688 5686 5690 5683 5670 5666 5664 5660 5658 5655 5653 5650 5652 5651 5649 5647 5647 5641 5633 5629 5627 5626 5624 5624
5599 5610 5636 5640 5638 5633 5638 5636 5641 5631 5633 5636 5649 5656 5670 5675 5681 5680 5680 5682 5683 5681 5679 5666 5659 5657 5657 5652 5648 5645 5642 5640 5640 5641 5640 5639 5635 5628 5622 5617 5615 5615 5613 5611
5608 5615 5614 5615 5615 5619 5624 5627 5628 5625 5626 5632 5634 5651 5669 5678 5679 5680 5678 5678 5681 5679 5674 5663 5651 5648 5645 5641 5637 5634 5632 5631 5630 5629 5629 5626 5623 5618 5616 5611 5607 5602 5601 5599
5595 5596 5600 5603 5607 5615 5609 5619 5616 5611 5613 5619 5627 5639 5662 5668 5665 5660 5666 5667 5668 5670 5671 5666 5649 5639 5634 5629 5624 5622 5619 5618 5618 5618 5620 5619 5618 5613 5605 5600 5594 5591 5587 5585
5583 5585 5590 5593 5603 5606 5605 5607 5604 5604 5602 5599 5617 5612 5659 5657 5658 5666 5659 5654 5658 5652 5655 5657 5643 5631 5621 5614 5612 5610 5608 5606 5605 5605 5607 5608 5604 5597 5591 5587 5583 5579 5574 5569
5564 5574 5584 5588 5590 5591 5590 5590 5590 5591 5592 5585 5615 5612 5649 5656 5655 5657 5649 5650 5640 5638 5637 5641 5629 5616 5608 5602 5601 5601 5599 5596 5594 5593 5592 5591 5588 5584 5579 5574 5570 5565 5559 5554
5551 5556 5563 5572 5568 5571 5582 5583 5566 5566 5566 5588 5592 5596 5636 5641 5640 5639 5637 5637 5631 5627 5626 5623 5612 5607 5602 5598 5595 5591 5589 5586 5583 5581 5578 5576 5574 5570 5565 5561 5556 5553 5548 5542
5551 5540 5554 5563 5574 5573 5574 5582 5578 5572 5579 5601 5573 5589 5626 5625 5623 5622 5621 5625 5619 5618 5616 5610 5606 5601 5597 5593 5588 5583 5580 5575 5571 5568 5563 5560 5558 5555 5550 5546 5542 5538 5533 5528
5550 5543 5548 5555 5560 5567 5558 5558 5575 5564 5534 5568 5599 5608 5623 5622 5615 5613 5613 5611 5611 5609 5606 5603 5598 5594 5588 5582 5577 5574 5570 5565 5561 5557 5552 5548 5545 5542 5538 5533 5530 5524 5518 5514
5555 5533 5537 5539 5548 5551 5560 5570 5551 5559 5553 5563 5600 5597 5617 5611 5615 5609 5605 5606 5604 5600 5598 5595 5589 5584 5580 5574 5568 5564 5560 5555 5549 5545 5541 5537 5534 5531 5526 5521 5515 5509 5504 5499
5548 5545 5520 5529 5539 5550 5548 5549 5558 5566 5558 5571 5581 5602 5615 5614 5607 5607 5604 5599 5596 5592 5590 5585 5582 5575 5569 5564 5558 5554 5549 5545 5539 5535 5531 5526 5521 5516 5511 5506 5500 5495 5490 5484
5537 5533 5518 5528 5531 5538 5556 5555 5555 5559 5550 5557 5555 5586 5594 5600 5597 5594 5597 5591 5589 5586 5582 5578 5573 5567 5560 5554 5549 5547 5541 5535 5529 5524 5519 5514 5508 5503 5498 5494 5488 5482 5477 5471
5530 5524 5509 5507 5519 5523 5531 5541 5555 5558 5551 5557 5558 5589 5585 5586 5585 5585 5586 5584 5581 5577 5574 5571 5565 5560 5557 5551 5544 5538 5531 5525 5519 5513 5508 5502 5496 5491 5486 5480 5474 5469 5464 5458
5527 5530 5544 5547 5553 5547 5534 5544 5548 5548 5544 5559 5571 5579 5577 5577 5580 5580 5579 5579 5575 5568 5566 5564 5560 5557 5552 5547 5540 5533 5526 5519 5509 5503 5499 5494 5489 5483 5477 5471 5465 5460 5454 5448
5519 5511 5530 5524 5528 5540 5541 5545 5546 5544 5555 5556 5574 5572 5580 5579 5578 5576 5576 5572 5570 5565 5561 5558 5554 5551 5547 5538 5532 5526 5519 5510 5503 5498 5493 5488 5481 5475 5469 5462 5457 5451 5444 5436
5518 5503 5517 5501 5513 5518 5526 5540 5551 5553 5551 5553 5560 5573 5583 5582 5577 5569 5568 5566 5561 5559 5556 5552 5549 5544 5538 5535 5527 5520 5516 5508 5501 5496 5489 5483 5474 5466 5458 5451 5442 5435 5428 5422
5510 5490 5497 5508 5503 5510 5517 5534 5541 5548 5555 5557 5562 5576 5566 5569 5569 5570 5565 5565 5558 5555 5553 5549 5544 5539 5533 5532 5523 5516 5510 5502 5493 5488 5480 5474 5467 5457 5448 5440 5431 5423 5415 5406
5509 5492 5484 5483 5481 5505 5546 5539 5549 5552 5555 5557 5564 5563 5566 5568 5569 5564 5566 5562 5556 5553 5551 5545 5541 5538 5530 5522 5515 5510 5501 5493 5485 5477 5471 5462 5453 5445 5436 5428 5420 5411 5403 5394
5509 5499 5477 5492 5502 5534 5545 5533 5534 5536 5551 5557 5562 5562 5558 5560 5559 5564 5561 5561 5559 5554 5548 5544 5538 5533 5528 5515 5508 5499 5490 5482 5476 5470 5461 5452 5444 5434 5425 5416 5409 5400 5390 5377
5497 5504 5502 5469 5507 5520 5542 5530 5529 5537 5542 5560 5561 5558 5558 5555 5550 5551 5560 5554 5550 5548 5543 5532 5525 5518 5513 5506 5498 5488 5478 5470 5466 5459 5449 5440 5431 5422 5413 5403 5394 5383 5372 5359
5476 5478 5492 5489 5505 5527 5543 5520 5528 5525 5544 5548 5549 5555 5556 5554 5555 5544 5544 5542 5536 5531 5526 5519 5513 5509 5503 5492 5481 5475 5469 5465 5458 5446 5438 5428 5421 5411 5401 5388 5378 5366 5352 5338
5493 5486 5489 5484 5497 5519 5527 5514 5531 5539 5535 5536 5535 5545 5547 5547 5537 5532 5533 5531 5524 5520 5513 5507 5503 5497 5488 5480 5472 5467 5460 5454 5443 5433 5424 5415 5405 5396 5385 5373 5359 5346 5333 5322
5488 5513 5509 5516 5530 5521 5521 5531 5526 5523 5531 5526 5529 5526 5531 5528 5526 5525 5520 5517 5513 5510 5503 5495 5488 5479 5471 5465 5461 5455 5449 5436 5427 5419 5408 5398 5389 5379 5370 5355 5342 5329 5319 5310
5475 5476 5494 5497 5508 5510 5508 5516 5511 5508 5511 5514 5517 5515 5513 5513 5510 5509 5508 5506 5502 5489 5482 5479 5473 5467 5464 5456 5447 5441 5431 5421 5413 5403 5393 5383 5374 5363 5351 5342 5331 5322 5313 5302
5482 5473 5479 5488 5483 5484 5495 5501 5502 5499 5501 5501 5498 5499 5502 5501 5500 5499 5497 5488 5483 5477 5471 5466 5464 5461 5457 5447 5436 5426 5418 5407 5399 5390 5380 5371 5361 5350 5339 5332 5325 5316 5307 5301
5469 5478 5494 5511 5498 5506 5513 5502 5493 5490 5491 5488 5483 5482 5478 5480 5483 5479 5474 5472 5468 5464 5458 5453 5450 5444 5439 5434 5427 5417 5406 5395 5385 5375 5367 5358 5349 5338 5329 5321 5313 5308 5303 5297